Regional Weather Roundup
Issued by NWS

Home | Current Version | Previous Version | Graphics & Text | Print | Product List | Glossary On
Versions: 1 2 3 4 5 6 7 8 9 10 11 12 13 14 15 16 17 18 19 20 21 22 23 24 25 26 27 28 29 30 31 32 33 34 35 36 37 38 39 40 41 42 43 44 45 46 47 48 49 50
000
ASUS45 KBOU 241307
RWRCO

WEATHER ROUNDUP FOR COLORADO
NATIONAL WEATHER SERVICE DENVER/BOULDER CO
600 AM MST WED DEC 24 2014

NOTE: "FAIR" INDICATES FEW OR NO CLOUDS BELOW 12000 FEET WITH NO
SIGNIFICANT WEATHER AND/OR OBSTRUCTIONS TO VISIBILITY.

COZ001>005-013-030-031-241400-
...NORTHWEST COLORADO...

CITY           SKY/WX    TMP DP  RH WIND       PRES   REMARKS
CRAIG          PTCLDY     1  -4  79 CALM      30.18F
HAYDEN         PTCLDY     7   1  78 SE15      30.15F WCI -11
MEEKER         MOCLDY     6   0  76 CALM      30.18F
MOUNT WERNER   NOT AVBL
STEAMBOAT SPGS PTCLDY     3   0  88 CALM      30.17F
WALDEN         PTCLDY     0  -6  78 SE9       30.08F WCI -16
$$

COZ006>008-011-241400-
...WEST CENTRAL VALLEYS...

CITY           SKY/WX    TMP DP  RH WIND       PRES   REMARKS
GRAND JUNCTION MOCLDY    19  13  77 SE9       30.24R WCI   8
MONTROSE       PTCLDY    14   7  73 SE6       30.25S WCI   5
EAGLE          MOCLDY    -2  -6  84 CALM      30.29R
RIFLE          MOCLDY    13   6  74 E3        30.27R
DELTA          PTCLDY    16   8  72 N7        30.27R WCI   6
NUCLA          PTCLDY    18   9  68 E5        30.23F WCI  11
$$

COZ017>023-064>068-241400-
...SOUTHWEST COLORADO...

CITY           SKY/WX    TMP DP  RH WIND       PRES   REMARKS
DURANGO        PTCLDY    10   4  76 NE7       30.13S WCI  -1
CORTEZ         CLEAR     15   9  76 E12       30.15S WCI   2
PAGOSA SPRINGS PTCLDY     4  -3  72 CALM      30.12R
TELLURIDE      CLOUDY    10  -1  63 E6        30.12F WCI   0
WOLF CREEK PAS PTCLDY    18   1  49 MISG      30.04S
$$

COZ009-010-012-014-032>034-037-058>063-241400-
...CENTRAL COLORADO...

CITY           SKY/WX    TMP DP  RH WIND       PRES   REMARKS
ASPEN          PTCLDY    -2  -7  79 CALM      30.15S
BUENA VISTA    PTCLDY    18  -1  42 NW15G25   30.01S WCI   4
COPPER MTN     MOCLDY    12   5  73 W16       30.01F WCI  -4
BERTHOUD PASS  NOT AVBL
COTTONWOOD PAS PTCLDY    21  -6  30 S7        29.98R WCI  13
GUNNISON       MOCLDY   -15 N/A N/A NE5       30.21S WCI -27
KREMMLING      MOCLDY    -4  -9  77 CALM      30.20R
LEADVILLE      CLEAR      1  -6  72 NE9       30.02F WCI -14
MONARCH PASS   MOCLDY     9   1  72 MISG      30.09R
SALIDA         PTCLDY    13   1  57 CALM      30.12S
SUNLIGHT         N/A    N/A N/A N/A MISG      30.09S
WILKERSON PASS MOCLDY    18   7  62 N12G20    29.95S WCI   5
$$

COZ069>075-241400-
...SAN LUIS VALLEY/SANGRE DE CRISTO MOUNTAINS...

CITY           SKY/WX    TMP DP  RH WIND       PRES   REMARKS
ALAMOSA        MOCLDY    -1  -7  75 SW7       30.10R WCI -14
LA VETA PASS   CLOUDY     3  -6  66 SW10G18   29.93S WCI -12
SAGUACHE       MOCLDY    14   1  57 NW28      30.08F WCI  -6
$$

COZ035-036-038>040-241400-
...NORTHERN COLORADO FRONT RANGE...

CITY           SKY/WX    TMP DP  RH WIND       PRES   REMARKS
DENVER INTL AP PTCLDY    23   4  44 S14       29.90F WCI  11
DMNS CITY PARK   N/A     21   3  45 S6        29.90F WCI  13
AURORA         PTCLDY    20   3  48 S12       29.91F WCI   8
FRONT RANGE AP PTCLDY    23  10  58 S17       29.90F WCI   9
ERIE MUNI ARPT   N/A     11   8  85 CALM      29.91F
BOULDER MUN AP PTCLDY    21  12  68 CALM      29.90F
CENTENNIAL     MOCLDY    17   5  59 S3        29.90F
BROOMFIELD     CLEAR     19   9  63 SW3       29.90F
FORT COLLINS   PTCLDY    16   7  67 CALM      29.92F
LONGMONT       PTCLDY    14   8  76 CALM      29.93F
$$

COZ041-046-047-076>085-087-088-241400-
...PIKES PEAK/PALMER DIVIDE AND SOUTHERN FOOTHILLS...

CITY           SKY/WX    TMP DP  RH WIND       PRES   REMARKS
COLO. SPRINGS  MOCLDY    12   2  64 N7        29.96F WCI   1
A. F. ACADEMY  MOCLDY     6  -2  69 N10       29.94F WCI  -9
ELLICOTT       NOT AVBL
FALCON         MOCLDY    12   1  61 W7        29.93F WCI   1
FORT CARSON    PTCLDY    13   3  65 NW10      29.95F WCI   0
LIMON          PTCLDY     6   2  83 N7        29.95F WCI  -6
MONUMENT HILL  MOCLDY    12   0  57 SW10      29.89F WCI  -1
TRINIDAD         N/A    N/A N/A N/A MISG      30.01F
$$

COZ042>045-048>051-090-091-241400-
...NORTHEAST COLORADO...

CITY           SKY/WX    TMP DP  RH WIND       PRES   REMARKS
GREELEY ARPT   PTCLDY     9  -2  61 CALM      29.92F
AKRON          CLEAR     14   8  77 SW9       29.92F WCI   2
BURLINGTON     PTCLDY    14   7  73 W12       29.97F WCI   0
WRAY           PTCLDY     8   5  88 SW6       29.97F WCI  -2
STERLING       CLEAR     12   9  85 S12       29.94F WCI  -2
HOLYOKE        PTCLDY    18  12  79 W7        29.94F WCI   8
FORT MORGAN    CLEAR      8   4  86 W10       29.94F WCI  -6
$$

COZ086-089-092>099-241400-
...SOUTHEAST COLORADO...

CITY           SKY/WX    TMP DP  RH WIND       PRES   REMARKS
PUEBLO         PTCLDY     6   2  83 W7        30.01F WCI  -6
LA JUNTA       PTCLDY    19  10  68 W15       30.02F WCI   5
LAMAR          CLEAR     18  12  77 W6        30.01F WCI  10
SPRINGFIELD      N/A     13   8  81 W8        30.01F WCI   2
$$



USA.gov is the U.S. government's official web portal to all federal, state and local government web resources and services.